FW2977 Weather Reports


Display with metric or nautical units.
time (UTC)temp
F
wind
direction
speed
MPH
gust
MPH
rain 1hr
in
rain 24hr
in
rain mn
in
humidity
%
barometer
mb
20260904231543 67 115 0.0 0.0 0.00 0.32 0.28 87 960.0
20260904230042 67 115 0.0 0.0 0.00 0.32 0.28 83 959.8
20260904224542 68 192 0.0 1.0 0.00 0.32 0.28 85 960.0
20260904223042 68 192 0.0 1.0 0.00 0.32 0.28 84 959.9
20260904221541 68 46 0.0 1.0 0.00 0.32 0.28 85 959.9
20260904220106 69 252 0.0 1.0 0.00 0.32 0.28 84 959.8
20260904214540 69 241 0.0 3.0 0.00 0.32 0.28 84 959.7
20260904213040 69 190 0.0 0.0 0.00 0.32 0.28 82 959.7
20260904211549 69 53 0.0 6.0 0.00 0.32 0.28 82 959.7
20260904210039 70 262 0.0 4.0 0.00 0.32 0.28 82 959.8
20260904204546 71 355 0.0 3.0 0.00 0.32 0.28 82 960.0
20260904203043 73 103 1.0 6.0 0.00 0.32 0.28 75 960.1
20260904201536 71 225 1.0 4.0 0.00 0.32 0.28 82 960.1
20260904200038 70 252 1.0 3.0 0.00 0.32 0.28 81 960.3
20260904194548 70 241 2.0 5.0 0.00 0.32 0.28 80 960.4
20260904193040 72 244 2.0 6.0 0.00 0.32 0.28 81 960.5
20260904191542 71 246 0.0 4.0 0.00 0.32 0.28 82 960.6
20260904190034 70 136 0.0 4.0 0.00 0.32 0.28 83 960.7
20260904184533 70 49 0.0 1.0 0.00 0.32 0.28 83 960.7
20260904183037 71 89 1.0 5.0 0.00 0.32 0.28 81 960.8
20260904181532 72 59 0.0 5.0 0.00 0.32 0.28 82 961.0
20260904180029 72 300 0.0 6.0 0.00 0.32 0.28 80 961.1
20260904174555 71 230 0.0 4.0 0.00 0.32 0.28 82 961.3
20260904173028 71 256 0.0 6.0 0.00 0.32 0.28 83 961.3
20260904171528 71 204 0.0 0.0 0.00 0.32 0.28 84 961.3
20260904170025 69 263 0.0 0.0 0.00 0.32 0.28 88 961.6
20260904164524 70 28 0.0 0.0 0.00 0.32 0.28 84 961.5
20260904163023 70 287 0.0 0.0 0.00 0.32 0.28 85 961.4
20260904161521 70 225 0.0 0.0 0.00 0.32 0.28 85 961.6
20260904160022 69 159 0.0 0.0 0.00 0.32 0.28 88 961.5
20260904154617 70 146 0.0 2.0 0.00 0.32 0.28 89 961.5
20260904153023 69 9 0.0 1.0 0.00 0.32 0.28 87 961.8
20260904151516 69 213 0.0 0.0 0.00 0.32 0.28 88 961.7
20260904150015 70 224 0.0 0.0 0.00 0.32 0.28 88 961.6
20260904144513 69 201 0.0 0.0 0.00 0.32 0.28 88 961.6
20260904143013 68 18 0.0 0.0 0.00 0.32 0.28 88 961.6
20260904141510 68 151 0.0 0.0 0.00 0.32 0.28 89 961.6
20260904140008 68 213 0.0 2.0 0.00 0.33 0.28 89 961.6
20260904134505 68 202 0.0 2.0 0.00 0.33 0.28 90 961.5
20260904133002 67 76 0.0 0.0 0.00 0.33 0.28 93 961.3
20260904131558 67 24 0.0 0.0 0.00 0.33 0.28 96 961.3
20260904130054 66 25 0.0 0.0 0.00 0.33 0.28 96 961.5
20260904124604 65 25 0.0 0.0 0.00 0.33 0.28 97 961.6
20260904123108 65 25 0.0 0.0 0.00 0.33 0.28 97 961.6
20260904121547 65 25 0.0 0.0 0.00 0.33 0.28 97 961.3
20260904120044 65 21 0.0 0.0 0.00 0.33 0.28 97 961.3
20260904114541 65 15 0.0 2.0 0.00 0.33 0.28 98 961.3
20260904113048 64 15 0.0 1.0 0.00 0.33 0.28 97 961.4
20260904111536 65 27 0.0 0.0 0.00 0.33 0.28 97 961.2
20260904110039 65 27 1.0 4.0 0.00 0.33 0.28 97 961.0
20260904104532 65 142 0.0 1.0 0.00 0.33 0.28 97 961.1
20260904103031 65 142 0.0 2.0 0.00 0.33 0.28 97 960.9
20260904101530 65 142 1.0 3.0 0.00 0.33 0.28 97 960.9
20260904100029 65 142 0.0 1.0 0.00 0.33 0.28 97 960.8
20260904094529 65 142 0.0 0.0 0.00 0.33 0.28 97 960.7
20260904093034 65 142 0.0 0.0 0.00 0.33 0.28 97 960.8
20260904091528 65 142 0.0 0.0 0.00 0.33 0.28 97 960.6
20260904090027 65 142 0.0 0.0 0.00 0.33 0.28 97 960.6
20260904084526 65 142 0.0 0.0 0.00 0.33 0.28 97 960.4
20260904083026 66 142 0.0 0.0 0.00 0.33 0.28 97 960.3
20260904081523 66 142 0.0 0.0 0.00 0.33 0.28 97 960.1
20260904080022 66 142 0.0 0.0 0.00 0.33 0.28 97 959.9
20260904074520 66 142 0.0 0.0 0.00 0.33 0.28 97 959.8
20260904073020 67 142 0.0 2.0 0.00 0.33 0.28 97 959.8
20260904071517 67 142 0.0 0.0 0.00 0.33 0.28 97 959.7
20260904070035 68 142 0.0 0.0 0.00 0.33 0.28 97 959.7
20260904064515 68 142 0.0 0.0 0.00 0.33 0.28 97 959.7
20260904063016 68 142 0.0 0.0 0.00 0.33 0.28 96 959.6
20260904061513 68 142 0.0 0.0 0.00 0.33 0.28 96 959.8
20260904060012 68 142 0.0 0.0 0.00 0.34 0.28 96 959.9
20260904054522 68 142 0.0 1.0 0.01 0.34 0.28 96 960.0
20260904053008 68 142 0.0 3.0 0.04 0.34 0.28 96 960.2
20260904051509 68 246 0.0 1.0 0.10 0.34 0.28 96 960.3
20260904050013 69 246 0.0 1.0 0.28 0.59 0.28 96 960.2
20260904044504 69 248 0.0 3.0 0.31 0.57 0.27 95 960.5
20260904043006 69 271 0.0 3.0 0.28 0.55 0.24 95 960.4
20260904041602 70 19 0.0 4.0 0.24 0.51 0.20 95 960.7
20260904040055 70 30 1.0 3.0 0.04 0.31 0.00 94 960.5
20260904034558 70 35 0.0 1.0 0.00 0.37 0.27 94 960.2
20260904033054 71 35 0.0 0.0 0.00 0.37 0.27 93 960.1
20260904031554 71 35 0.0 0.0 0.00 0.37 0.27 93 960.2
20260904030056 71 35 0.0 2.0 0.00 0.37 0.27 93 960.3
20260904024552 71 35 0.0 3.0 0.00 0.92 0.27 93 960.2
20260904023058 71 35 0.0 2.0 0.00 0.92 0.27 93 960.3
20260904021554 71 35 0.0 1.0 0.00 0.92 0.27 93 960.5
20260904020050 72 35 0.0 1.0 0.00 0.92 0.27 93 960.8
20260904014551 72 231 0.0 2.0 0.00 0.96 0.27 92 960.8
20260904013050 72 231 0.0 0.0 0.00 0.96 0.27 92 961.0
20260904011607 72 231 0.0 0.0 0.00 0.96 0.27 91 961.1
20260904010059 73 231 0.0 0.0 0.00 0.96 0.27 91 961.0
20260904004548 73 231 0.0 1.0 0.00 0.96 0.27 91 960.8
20260904003048 72 231 0.0 0.0 0.00 0.96 0.27 91 960.7
20260904001548 72 231 0.0 1.0 0.00 0.96 0.27 91 960.5
20260904000053 73 231 0.0 1.0 0.00 0.96 0.27 91 960.5
20260903234646 73 231 0.0 1.0 0.00 0.96 0.27 91 960.5
20260903233046 73 231 0.0 0.0 0.00 0.96 0.27 90 960.5